Time,TemperatureF,DewpointF,PressureIn,WindDirection,WindDirectionDegrees,WindSpeedMPH,WindSpeedGustMPH,Humidity,HourlyPrecipIn,Conditions,Clouds,dailyrainin,SolarRadiationWatts/m^2,SoftwareType,DateUTC
2013-05-03 00:00:00,63.2,42.6,30.05,NW,306,0.0,0.0,47,0.00,,,0.00,0.0,WeatherDisplay:10.37,2013-05-03 07:00:00,
2013-05-03 00:05:00,62.8,42.8,30.05,NW,306,0.0,0.0,48,0.00,,,0.00,0.0,WeatherDisplay:10.37,2013-05-03 07:05:00,
2013-05-03 00:10:00,62.7,42.2,30.05,NW,306,0.0,0.0,47,0.00,,,0.00,0.0,WeatherDisplay:10.37,2013-05-03 07:10:00,
2013-05-03 00:15:00,61.5,42.2,30.05,NW,306,0.0,0.0,49,0.00,,,0.00,0.0,WeatherDisplay:10.37,2013-05-03 07:15:00,
2013-05-03 00:20:00,61.4,43.1,30.05,NW,306,0.0,0.0,51,0.00,,,0.00,0.0,WeatherDisplay:10.37,2013-05-03 07:20:00,
2013-05-03 00:25:00,61.8,43.0,30.05,NW,306,0.0,0.0,50,0.00,,,0.00,0.0,WeatherDisplay:10.37,2013-05-03 07:25:00,
2013-05-03 00:30:00,61.0,41.2,30.05,NW,306,0.0,0.0,48,0.00,,,0.00,0.0,WeatherDisplay:10.37,2013-05-03 07:30:00,
2013-05-03 00:35:00,61.1,42.3,30.05,NW,306,0.0,0.0,50,0.00,,,0.00,0.0,WeatherDisplay:10.37,2013-05-03 07:35:00,
2013-05-03 00:40:00,60.3,41.6,30.05,NW,306,0.0,0.0,50,0.00,,,0.00,0.0,WeatherDisplay:10.37,2013-05-03 07:40:00,
2013-05-03 00:45:00,60.2,42.5,30.04,NW,306,0.0,0.0,52,0.00,,,0.00,0.0,WeatherDisplay:10.37,2013-05-03 07:45:00,
2013-05-03 00:50:00,60.1,41.9,30.04,NW,306,0.0,0.0,51,0.00,,,0.00,0.0,WeatherDisplay:10.37,2013-05-03 07:50:00,
2013-05-03 00:55:00,60.1,42.9,30.04,NW,306,0.0,0.0,53,0.00,,,0.00,0.0,WeatherDisplay:10.37,2013-05-03 07:55:00,
2013-05-03 01:00:00,59.9,43.2,30.04,NW,306,0.0,0.0,54,0.00,,,0.00,0.0,WeatherDisplay:10.37,2013-05-03 08:00:00,
2013-05-03 01:05:00,60.5,44.2,30.04,NW,306,0.0,0.0,55,0.00,,,0.00,0.0,WeatherDisplay:10.37,2013-05-03 08:05:00,
2013-05-03 01:10:00,60.3,45.5,30.04,NW,306,0.0,0.0,58,0.00,,,0.00,0.0,WeatherDisplay:10.37,2013-05-03 08:10:00,
2013-05-03 01:15:00,59.5,43.8,30.04,NW,306,0.0,0.0,56,0.00,,,0.00,0.0,WeatherDisplay:10.37,2013-05-03 08:15:00,
2013-05-03 01:20:00,58.5,42.4,30.04,NW,306,0.0,0.0,55,0.00,,,0.00,0.0,WeatherDisplay:10.37,2013-05-03 08:20:00,
2013-05-03 01:25:00,58.1,43.4,30.04,NW,306,0.0,0.0,58,0.00,,,0.00,0.0,WeatherDisplay:10.37,2013-05-03 08:25:00,
2013-05-03 01:30:00,57.7,42.6,30.04,NW,306,0.0,0.0,57,0.00,,,0.00,0.0,WeatherDisplay:10.37,2013-05-03 08:30:00,
2013-05-03 01:35:00,57.7,42.1,30.03,NW,306,0.0,0.0,56,0.00,,,0.00,0.0,WeatherDisplay:10.37,2013-05-03 08:35:00,
2013-05-03 01:40:00,57.6,40.6,30.03,NW,306,0.0,0.0,53,0.00,,,0.00,0.0,WeatherDisplay:10.37,2013-05-03 08:40:00,
2013-05-03 01:45:00,57.1,42.9,30.03,NW,306,0.0,0.0,59,0.00,,,0.00,0.0,WeatherDisplay:10.37,2013-05-03 08:45:00,
2013-05-03 01:50:00,57.0,43.2,30.03,NW,306,0.0,0.0,60,0.00,,,0.00,0.0,WeatherDisplay:10.37,2013-05-03 08:50:00,
2013-05-03 01:55:00,56.9,42.7,30.03,NW,306,0.0,0.0,59,0.00,,,0.00,0.0,WeatherDisplay:10.37,2013-05-03 08:55:00,
2013-05-03 02:00:00,56.7,43.4,30.03,NW,306,0.0,0.0,61,0.00,,,0.00,0.0,WeatherDisplay:10.37,2013-05-03 09:00:00,
2013-05-03 02:05:00,56.7,42.5,30.03,NW,306,0.0,0.0,59,0.00,,,0.00,0.0,WeatherDisplay:10.37,2013-05-03 09:05:00,
2013-05-03 02:10:00,56.5,41.9,30.03,NW,306,0.0,0.0,58,0.00,,,0.00,0.0,WeatherDisplay:10.37,2013-05-03 09:10:00,
2013-05-03 02:15:00,56.6,41.5,30.02,NW,306,0.0,0.0,57,0.00,,,0.00,0.0,WeatherDisplay:10.37,2013-05-03 09:15:00,
2013-05-03 02:20:00,56.5,41.4,30.03,NW,306,0.0,0.0,57,0.00,,,0.00,0.0,WeatherDisplay:10.37,2013-05-03 09:20:00,
2013-05-03 02:25:00,56.1,41.1,30.02,NW,306,0.0,0.0,57,0.00,,,0.00,0.0,WeatherDisplay:10.37,2013-05-03 09:25:00,
2013-05-03 02:30:00,56.0,40.5,30.02,NW,306,0.0,0.0,56,0.00,,,0.00,0.0,WeatherDisplay:10.37,2013-05-03 09:30:00,
2013-05-03 02:35:00,55.9,40.0,30.02,NW,306,0.0,0.0,55,0.00,,,0.00,0.0,WeatherDisplay:10.37,2013-05-03 09:35:00,
2013-05-03 02:40:00,55.7,39.3,30.02,NW,306,0.0,0.0,54,0.00,,,0.00,0.0,WeatherDisplay:10.37,2013-05-03 09:40:00,
2013-05-03 02:45:00,55.5,39.1,30.02,NW,306,0.0,0.0,54,0.00,,,0.00,0.0,WeatherDisplay:10.37,2013-05-03 09:45:00,
2013-05-03 02:50:00,55.3,38.9,30.02,NW,306,0.0,0.0,54,0.00,,,0.00,0.0,WeatherDisplay:10.37,2013-05-03 09:50:00,
2013-05-03 02:55:00,55.2,38.8,30.01,NW,306,0.0,0.0,54,0.00,,,0.00,0.0,WeatherDisplay:10.37,2013-05-03 09:55:00,
2013-05-03 03:00:00,55.1,38.7,30.01,NW,306,0.0,0.0,54,0.00,,,0.00,0.0,WeatherDisplay:10.37,2013-05-03 10:00:00,
2013-05-03 03:05:00,55.1,38.7,30.01,NW,306,0.0,0.0,54,0.00,,,0.00,0.0,WeatherDisplay:10.37,2013-05-03 10:05:00,
2013-05-03 03:10:00,55.0,38.2,30.01,NW,306,0.0,0.0,53,0.00,,,0.00,0.0,WeatherDisplay:10.37,2013-05-03 10:10:00,
2013-05-03 03:15:00,54.8,38.5,30.01,NW,306,0.0,0.0,54,0.00,,,0.00,0.0,WeatherDisplay:10.37,2013-05-03 10:15:00,
2013-05-03 03:20:00,54.6,38.3,30.01,NW,306,0.0,0.0,54,0.00,,,0.00,0.0,WeatherDisplay:10.37,2013-05-03 10:20:00,
2013-05-03 03:25:00,54.5,38.7,30.01,NW,306,0.0,0.0,55,0.00,,,0.00,0.0,WeatherDisplay:10.37,2013-05-03 10:25:00,
2013-05-03 03:30:00,54.2,38.4,30.00,NW,306,0.0,0.0,55,0.00,,,0.00,0.0,WeatherDisplay:10.37,2013-05-03 10:30:00,
2013-05-03 03:35:00,53.9,38.1,30.01,NW,306,0.0,0.0,55,0.00,,,0.00,0.0,WeatherDisplay:10.37,2013-05-03 10:35:00,
2013-05-03 03:40:00,54.0,38.2,30.01,NW,306,0.0,0.0,55,0.00,,,0.00,0.0,WeatherDisplay:10.37,2013-05-03 10:40:00,
2013-05-03 03:45:00,54.1,37.8,30.01,NW,306,0.0,0.0,54,0.00,,,0.00,0.0,WeatherDisplay:10.37,2013-05-03 10:45:00,
2013-05-03 03:50:00,54.3,37.5,30.01,NW,306,0.0,0.0,53,0.00,,,0.00,0.0,WeatherDisplay:10.37,2013-05-03 10:50:00,
2013-05-03 03:55:00,54.2,38.4,30.01,NW,306,0.0,0.0,55,0.00,,,0.00,0.0,WeatherDisplay:10.37,2013-05-03 10:55:00,
2013-05-03 04:00:00,53.7,37.9,30.00,NW,306,0.0,0.0,55,0.00,,,0.00,0.0,WeatherDisplay:10.37,2013-05-03 11:00:00,
2013-05-03 04:05:00,53.3,38.0,30.00,NW,306,0.0,0.0,56,0.00,,,0.00,0.0,WeatherDisplay:10.37,2013-05-03 11:05:00,
2013-05-03 04:10:00,53.0,38.2,30.00,NW,306,0.0,0.0,57,0.00,,,0.00,0.0,WeatherDisplay:10.37,2013-05-03 11:10:00,
2013-05-03 04:15:00,52.9,38.1,30.00,NW,306,0.0,0.0,57,0.00,,,0.00,0.0,WeatherDisplay:10.37,2013-05-03 11:15:00,
2013-05-03 04:20:00,52.8,37.1,30.00,NW,306,0.0,0.0,55,0.00,,,0.00,0.0,WeatherDisplay:10.37,2013-05-03 11:20:00,
2013-05-03 04:25:00,52.9,37.2,30.00,NW,306,0.0,0.0,55,0.00,,,0.00,0.0,WeatherDisplay:10.37,2013-05-03 11:25:00,
2013-05-03 04:30:00,53.0,37.7,30.00,NW,306,0.0,0.0,56,0.00,,,0.00,0.0,WeatherDisplay:10.37,2013-05-03 11:30:00,
2013-05-03 04:35:00,52.6,37.3,30.00,NW,306,0.0,0.0,56,0.00,,,0.00,0.0,WeatherDisplay:10.37,2013-05-03 11:35:00,
2013-05-03 04:40:00,52.6,37.8,30.00,NW,306,0.0,0.0,57,0.00,,,0.00,0.0,WeatherDisplay:10.37,2013-05-03 11:40:00,
2013-05-03 04:45:00,52.4,37.6,30.00,NW,306,0.0,0.0,57,0.00,,,0.00,0.0,WeatherDisplay:10.37,2013-05-03 11:45:00,
2013-05-03 04:50:00,52.1,37.8,29.99,NW,306,0.0,0.0,58,0.00,,,0.00,0.0,WeatherDisplay:10.37,2013-05-03 11:50:00,
2013-05-03 04:55:00,51.7,37.4,29.99,NW,306,0.0,0.0,58,0.00,,,0.00,0.0,WeatherDisplay:10.37,2013-05-03 11:55:00,
2013-05-03 05:00:00,51.7,37.4,30.00,NW,306,0.0,0.0,58,0.00,,,0.00,0.0,WeatherDisplay:10.37,2013-05-03 12:00:00,
2013-05-03 05:05:00,51.6,37.7,29.99,NW,306,0.0,0.0,59,0.00,,,0.00,0.0,WeatherDisplay:10.37,2013-05-03 12:05:00,
2013-05-03 05:10:00,51.3,37.4,30.00,NW,306,0.0,0.0,59,0.00,,,0.00,0.0,WeatherDisplay:10.37,2013-05-03 12:10:00,
2013-05-03 05:15:00,51.2,37.8,30.00,NW,306,0.0,0.0,60,0.00,,,0.00,0.0,WeatherDisplay:10.37,2013-05-03 12:15:00,
2013-05-03 05:20:00,51.3,37.9,30.00,NW,306,0.0,0.0,60,0.00,,,0.00,0.0,WeatherDisplay:10.37,2013-05-03 12:20:00,
2013-05-03 05:25:00,51.2,37.8,29.99,NW,306,0.0,0.0,60,0.00,,,0.00,0.0,WeatherDisplay:10.37,2013-05-03 12:25:00,
2013-05-03 05:30:00,51.1,38.1,29.99,NW,306,0.0,0.0,61,0.00,,,0.00,0.0,WeatherDisplay:10.37,2013-05-03 12:30:00,
2013-05-03 05:35:00,51.1,38.1,29.99,NW,306,0.0,0.0,61,0.00,,,0.00,0.0,WeatherDisplay:10.37,2013-05-03 12:35:00,
2013-05-03 05:40:00,50.8,37.8,29.99,NW,306,0.0,0.0,61,0.00,,,0.00,0.0,WeatherDisplay:10.37,2013-05-03 12:40:00,
2013-05-03 05:45:00,50.9,37.9,29.99,NW,306,0.0,0.0,61,0.00,,,0.00,0.0,WeatherDisplay:10.37,2013-05-03 12:45:00,
2013-05-03 05:50:00,50.7,37.3,29.99,NW,306,0.0,0.0,60,0.00,,,0.00,0.0,WeatherDisplay:10.37,2013-05-03 12:50:00,
2013-05-03 05:55:00,50.5,37.5,29.99,NW,306,0.0,0.0,61,0.00,,,0.00,0.0,WeatherDisplay:10.37,2013-05-03 12:55:00,
2013-05-03 06:00:00,50.7,37.7,29.99,NW,306,0.0,0.0,61,0.00,,,0.00,0.0,WeatherDisplay:10.37,2013-05-03 13:00:00,
2013-05-03 06:05:00,50.8,37.8,30.00,NW,306,0.0,0.0,61,0.00,,,0.00,0.0,WeatherDisplay:10.37,2013-05-03 13:05:00,
2013-05-03 06:10:00,50.9,37.9,30.00,NW,306,0.0,0.0,61,0.00,,,0.00,0.0,WeatherDisplay:10.37,2013-05-03 13:10:00,
2013-05-03 06:15:00,50.6,37.2,29.99,NW,306,0.0,0.0,60,0.00,,,0.00,5.0,WeatherDisplay:10.37,2013-05-03 13:15:00,
2013-05-03 06:20:00,50.3,37.4,29.99,NW,306,0.0,0.0,61,0.00,CLR,,0.00,9.0,WeatherDisplay:10.37,2013-05-03 13:20:00,
2013-05-03 06:25:00,50.2,37.7,29.99,NW,306,0.0,0.0,62,0.00,SCT,,0.00,12.0,WeatherDisplay:10.37,2013-05-03 13:25:00,
2013-05-03 06:30:00,50.2,37.7,29.99,NW,306,0.0,0.0,62,0.00,SCT,,0.00,18.0,WeatherDisplay:10.37,2013-05-03 13:30:00,
2013-05-03 06:35:00,50.5,38.0,29.99,NW,306,0.0,0.0,62,0.00,SCT,,0.00,21.0,WeatherDisplay:10.37,2013-05-03 13:35:00,
2013-05-03 06:40:00,50.7,38.1,30.00,NW,306,0.0,0.0,62,0.00,SCT,,0.00,28.0,WeatherDisplay:10.37,2013-05-03 13:40:00,
2013-05-03 06:45:00,51.1,38.1,30.00,NW,306,0.0,0.0,61,0.00,SCT,,0.00,37.0,WeatherDisplay:10.37,2013-05-03 13:45:00,
2013-05-03 06:50:00,51.4,38.0,29.99,NW,306,0.0,0.0,60,0.00,SCT,,0.00,47.0,WeatherDisplay:10.37,2013-05-03 13:50:00,
2013-05-03 06:55:00,52.1,38.6,29.99,NW,306,0.0,0.0,60,0.00,SCT,,0.00,60.0,WeatherDisplay:10.37,2013-05-03 13:55:00,
2013-05-03 07:00:00,52.4,39.8,29.99,NW,306,0.0,0.0,62,0.00,FEW,,0.00,76.0,WeatherDisplay:10.37,2013-05-03 14:00:00,
2013-05-03 07:05:00,53.0,40.3,29.99,NW,306,0.0,0.0,62,0.00,FEW,,0.00,88.0,WeatherDisplay:10.37,2013-05-03 14:05:00,
2013-05-03 07:10:00,53.8,40.2,29.99,NW,306,0.0,0.0,60,0.00,FEW,,0.00,107.0,WeatherDisplay:10.37,2013-05-03 14:10:00,
2013-05-03 07:15:00,54.3,40.3,29.99,NW,306,0.0,0.0,59,0.00,CLR,,0.00,127.0,WeatherDisplay:10.37,2013-05-03 14:15:00,
2013-05-03 07:20:00,54.2,40.6,29.99,NW,306,0.0,0.0,60,0.00,CLR,,0.00,146.0,WeatherDisplay:10.37,2013-05-03 14:20:00,
2013-05-03 07:25:00,54.4,40.4,29.99,NW,306,0.0,0.0,59,0.00,CLR,,0.00,163.0,WeatherDisplay:10.37,2013-05-03 14:25:00,
2013-05-03 07:30:00,55.1,40.6,29.99,NW,306,0.0,0.0,58,0.00,CLR,,0.00,185.0,WeatherDisplay:10.37,2013-05-03 14:30:00,
2013-05-03 07:35:00,55.3,40.8,29.99,NW,306,0.0,0.0,58,0.00,CLR,,0.00,206.0,WeatherDisplay:10.37,2013-05-03 14:35:00,
2013-05-03 07:40:00,56.2,40.7,29.99,NW,306,0.0,0.0,56,0.00,CLR,,0.00,225.0,WeatherDisplay:10.37,2013-05-03 14:40:00,
2013-05-03 07:45:00,56.4,41.3,29.99,NW,306,0.0,0.0,57,0.00,CLR,,0.00,243.0,WeatherDisplay:10.37,2013-05-03 14:45:00,
2013-05-03 07:50:00,56.8,40.8,29.99,NW,306,0.0,0.0,55,0.00,CLR,,0.00,258.0,WeatherDisplay:10.37,2013-05-03 14:50:00,
2013-05-03 07:55:00,57.9,41.3,29.99,NW,306,0.0,0.0,54,0.00,CLR,,0.00,278.0,WeatherDisplay:10.37,2013-05-03 14:55:00,
2013-05-03 08:00:00,59.0,41.4,29.99,NW,306,0.0,0.0,52,0.00,CLR,,0.00,295.0,WeatherDisplay:10.37,2013-05-03 15:00:00,
2013-05-03 08:05:00,60.3,41.6,29.99,NW,306,0.0,0.0,50,0.00,CLR,,0.00,315.0,WeatherDisplay:10.37,2013-05-03 15:05:00,
2013-05-03 08:10:00,60.5,41.8,29.99,NW,306,0.0,0.0,50,0.00,CLR,,0.00,329.0,WeatherDisplay:10.37,2013-05-03 15:10:00,
2013-05-03 08:15:00,60.9,41.6,29.99,NW,306,0.0,0.0,49,0.00,CLR,,0.00,348.0,WeatherDisplay:10.37,2013-05-03 15:15:00,
2013-05-03 08:20:00,61.9,42.5,29.99,NW,306,0.0,0.0,49,0.00,CLR,,0.00,371.0,WeatherDisplay:10.37,2013-05-03 15:20:00,
2013-05-03 08:25:00,61.8,41.9,29.98,NW,306,0.0,0.0,48,0.00,CLR,,0.00,387.0,WeatherDisplay:10.37,2013-05-03 15:25:00,
2013-05-03 08:30:00,63.1,42.0,29.99,NW,306,0.0,0.0,46,0.00,CLR,,0.00,406.0,WeatherDisplay:10.37,2013-05-03 15:30:00,
2013-05-03 08:35:00,64.1,41.1,29.99,NW,306,0.0,0.0,43,0.00,CLR,,0.00,422.0,WeatherDisplay:10.37,2013-05-03 15:35:00,
2013-05-03 08:40:00,64.9,41.9,29.98,NW,306,0.0,0.0,43,0.00,CLR,,0.00,438.0,WeatherDisplay:10.37,2013-05-03 15:40:00,
2013-05-03 08:45:00,65.5,43.0,29.98,NW,306,0.0,0.0,44,0.00,CLR,,0.00,455.0,WeatherDisplay:10.37,2013-05-03 15:45:00,
2013-05-03 08:50:00,66.0,42.9,29.98,NW,306,0.0,0.0,43,0.00,CLR,,0.00,475.0,WeatherDisplay:10.37,2013-05-03 15:50:00,
2013-05-03 08:55:00,66.3,43.7,29.98,NW,306,0.0,0.0,44,0.00,CLR,,0.00,489.0,WeatherDisplay:10.37,2013-05-03 15:55:00,
2013-05-03 09:00:00,66.0,44.0,29.98,NW,306,0.0,0.0,45,0.00,CLR,,0.00,506.0,WeatherDisplay:10.37,2013-05-03 16:00:00,
2013-05-03 09:05:00,66.5,44.5,29.98,NW,306,0.0,0.0,45,0.00,CLR,,0.00,524.0,WeatherDisplay:10.37,2013-05-03 16:05:00,
2013-05-03 09:10:00,66.6,44.6,29.97,NW,306,0.0,0.0,45,0.00,CLR,,0.00,543.0,WeatherDisplay:10.37,2013-05-03 16:10:00,
2013-05-03 09:15:00,66.8,45.3,29.97,NW,306,0.0,0.0,46,0.00,CLR,,0.00,559.0,WeatherDisplay:10.37,2013-05-03 16:15:00,
2013-05-03 09:20:00,67.6,45.5,29.97,NW,306,0.0,0.0,45,0.00,CLR,,0.00,577.0,WeatherDisplay:10.37,2013-05-03 16:20:00,
2013-05-03 09:25:00,68.7,45.3,29.97,NW,306,0.0,0.0,43,0.00,CLR,,0.00,592.0,WeatherDisplay:10.37,2013-05-03 16:25:00,
2013-05-03 09:30:00,69.1,44.4,29.97,NW,306,0.0,0.0,41,0.00,CLR,,0.00,612.0,WeatherDisplay:10.37,2013-05-03 16:30:00,
2013-05-03 09:35:00,70.2,46.6,29.96,NW,306,0.0,0.0,43,0.00,CLR,,0.00,628.0,WeatherDisplay:10.37,2013-05-03 16:35:00,
2013-05-03 09:40:00,70.0,47.1,29.96,NW,306,0.0,0.0,44,0.00,CLR,,0.00,638.0,WeatherDisplay:10.37,2013-05-03 16:40:00,
2013-05-03 09:45:00,70.1,48.4,29.96,NW,306,0.4,2.3,46,0.00,CLR,,0.00,654.0,WeatherDisplay:10.37,2013-05-03 16:45:00,
2013-05-03 09:50:00,70.1,48.9,29.96,NW,306,0.9,2.3,47,0.00,CLR,,0.00,670.0,WeatherDisplay:10.37,2013-05-03 16:50:00,
2013-05-03 09:55:00,71.0,49.7,29.96,NW,306,2.1,3.5,47,0.00,CLR,,0.00,684.0,WeatherDisplay:10.37,2013-05-03 16:55:00,
2013-05-03 10:00:00,70.8,49.0,29.96,NW,306,0.4,1.2,46,0.00,CLR,,0.00,701.0,WeatherDisplay:10.37,2013-05-03 17:00:00,
2013-05-03 10:05:00,70.7,47.1,29.95,NW,306,0.8,3.5,43,0.00,CLR,,0.00,712.0,WeatherDisplay:10.37,2013-05-03 17:05:00,
2013-05-03 10:10:00,70.4,48.0,29.95,NW,306,0.5,2.3,45,0.00,CLR,,0.00,728.0,WeatherDisplay:10.37,2013-05-03 17:10:00,
2013-05-03 10:15:00,70.9,47.9,29.95,NW,306,0.8,2.3,44,0.00,CLR,,0.00,744.0,WeatherDisplay:10.37,2013-05-03 17:15:00,
2013-05-03 10:20:00,72.7,47.6,29.95,NW,306,0.8,1.2,41,0.00,CLR,,0.00,758.0,WeatherDisplay:10.37,2013-05-03 17:20:00,
2013-05-03 10:25:00,72.7,47.6,29.95,NW,306,0.4,1.2,41,0.00,CLR,,0.00,770.0,WeatherDisplay:10.37,2013-05-03 17:25:00,
2013-05-03 10:30:00,74.1,47.6,29.95,NW,306,0.9,2.3,39,0.00,CLR,,0.00,784.0,WeatherDisplay:10.37,2013-05-03 17:30:00,
2013-05-03 10:35:00,73.4,46.2,29.95,NW,306,1.9,3.5,38,0.00,CLR,,0.00,798.0,WeatherDisplay:10.37,2013-05-03 17:35:00,
2013-05-03 10:40:00,73.1,46.0,29.95,NW,306,2.5,4.6,38,0.00,CLR,,0.00,812.0,WeatherDisplay:10.37,2013-05-03 17:40:00,
2013-05-03 10:45:00,73.4,46.2,29.95,NW,306,1.1,2.3,38,0.00,CLR,,0.00,824.0,WeatherDisplay:10.37,2013-05-03 17:45:00,
2013-05-03 10:50:00,73.3,46.2,29.95,NW,306,0.8,1.2,38,0.00,CLR,,0.00,835.0,WeatherDisplay:10.37,2013-05-03 17:50:00,
2013-05-03 10:55:00,75.1,46.3,29.95,NW,306,1.9,3.5,36,0.00,CLR,,0.00,844.0,WeatherDisplay:10.37,2013-05-03 17:55:00,
2013-05-03 11:00:00,74.4,45.7,29.94,NW,306,0.8,2.3,36,0.00,CLR,,0.00,858.0,WeatherDisplay:10.37,2013-05-03 18:00:00,
2013-05-03 11:05:00,74.7,46.0,29.94,NW,306,0.1,0.0,36,0.00,CLR,,0.00,867.0,WeatherDisplay:10.37,2013-05-03 18:05:00,
2013-05-03 11:10:00,75.8,45.4,29.94,NW,308,3.0,3.5,34,0.00,CLR,,0.00,877.0,WeatherDisplay:10.37,2013-05-03 18:10:00,
2013-05-03 11:15:00,75.7,46.1,29.94,NW,308,0.6,2.3,35,0.00,CLR,,0.00,886.0,WeatherDisplay:10.37,2013-05-03 18:15:00,
2013-05-03 11:20:00,76.9,45.6,29.94,NW,307,1.6,3.5,33,0.00,CLR,,0.00,896.0,WeatherDisplay:10.37,2013-05-03 18:20:00,
2013-05-03 11:25:00,76.8,46.3,29.94,NW,308,0.2,1.2,34,0.00,CLR,,0.00,907.0,WeatherDisplay:10.37,2013-05-03 18:25:00,
2013-05-03 11:30:00,76.7,44.6,29.94,NW,307,0.9,3.5,32,0.00,CLR,,0.00,918.0,WeatherDisplay:10.37,2013-05-03 18:30:00,
2013-05-03 11:35:00,77.6,46.2,29.94,NW,307,1.0,3.0,33,0.00,CLR,,0.00,923.0,WeatherDisplay:10.37,2013-05-03 18:35:00,
2013-05-03 11:40:00,77.3,45.9,29.93,NW,307,1.8,3.5,33,0.00,CLR,,0.00,933.0,WeatherDisplay:10.37,2013-05-03 18:40:00,
2013-05-03 11:45:00,79.1,46.7,29.93,NW,307,1.4,3.5,32,0.00,CLR,,0.00,944.0,WeatherDisplay:10.37,2013-05-03 18:45:00,
2013-05-03 11:50:00,80.3,46.0,29.93,NW,310,1.4,3.5,30,0.00,CLR,,0.00,953.0,WeatherDisplay:10.37,2013-05-03 18:50:00,
2013-05-03 11:55:00,80.1,45.0,29.92,NW,310,2.1,2.3,29,0.00,CLR,,0.00,954.0,WeatherDisplay:10.37,2013-05-03 18:55:00,
2013-05-03 12:00:00,79.9,46.6,29.92,NW,310,1.2,2.3,31,0.00,CLR,,0.00,963.0,WeatherDisplay:10.37,2013-05-03 19:00:00,
2013-05-03 12:05:00,80.7,46.4,29.92,NW,310,0.7,2.3,30,0.00,CLR,,0.00,967.0,WeatherDisplay:10.37,2013-05-03 19:05:00,
2013-05-03 12:10:00,80.0,45.8,29.92,NW,313,1.2,3.5,30,0.00,CLR,,0.00,974.0,WeatherDisplay:10.37,2013-05-03 19:10:00,
2013-05-03 12:15:00,82.0,47.5,29.92,NW,313,3.0,3.5,30,0.00,CLR,,0.00,977.0,WeatherDisplay:10.37,2013-05-03 19:15:00,
2013-05-03 12:20:00,81.4,47.0,29.92,NW,313,2.0,3.5,30,0.00,CLR,,0.00,981.0,WeatherDisplay:10.37,2013-05-03 19:20:00,
2013-05-03 12:25:00,81.9,47.4,29.91,NNW,329,2.0,3.5,30,0.00,CLR,,0.00,984.0,WeatherDisplay:10.37,2013-05-03 19:25:00,
2013-05-03 12:30:00,82.2,46.8,29.91,NNW,340,2.3,4.0,29,0.00,CLR,,0.00,986.0,WeatherDisplay:10.37,2013-05-03 19:30:00,
2013-05-03 12:35:00,82.3,46.9,29.91,North,355,3.1,4.6,29,0.00,CLR,,0.00,990.0,WeatherDisplay:10.37,2013-05-03 19:35:00,
2013-05-03 12:40:00,82.3,47.8,29.91,North,9,1.7,3.5,30,0.00,CLR,,0.00,990.0,WeatherDisplay:10.37,2013-05-03 19:40:00,
2013-05-03 12:45:00,81.9,48.3,29.91,North,9,1.2,2.3,31,0.00,CLR,,0.00,993.0,WeatherDisplay:10.37,2013-05-03 19:45:00,
2013-05-03 12:50:00,82.5,47.0,29.90,North,9,1.1,3.5,29,0.00,CLR,,0.00,998.0,WeatherDisplay:10.37,2013-05-03 19:50:00,
2013-05-03 12:55:00,83.6,46.1,29.90,North,9,1.0,2.3,27,0.00,CLR,,0.00,993.0,WeatherDisplay:10.37,2013-05-03 19:55:00,
2013-05-03 13:00:00,83.0,46.5,29.90,North,9,2.8,3.5,28,0.00,CLR,,0.00,991.0,WeatherDisplay:10.37,2013-05-03 20:00:00,
2013-05-03 13:05:00,84.5,48.8,29.90,North,9,1.6,3.5,29,0.00,CLR,,0.00,993.0,WeatherDisplay:10.37,2013-05-03 20:05:00,
2013-05-03 13:10:00,84.2,48.5,29.90,North,9,0.7,2.3,29,0.00,CLR,,0.00,991.0,WeatherDisplay:10.37,2013-05-03 20:10:00,
2013-05-03 13:15:00,84.6,48.8,29.89,North,9,1.1,2.3,29,0.00,CLR,,0.00,986.0,WeatherDisplay:10.37,2013-05-03 20:15:00,
2013-05-03 13:20:00,84.4,49.6,29.89,North,9,0.6,3.5,30,0.00,CLR,,0.00,984.0,WeatherDisplay:10.37,2013-05-03 20:20:00,
2013-05-03 13:25:00,85.8,49.9,29.89,NNE,15,1.7,3.5,29,0.00,CLR,,0.00,984.0,WeatherDisplay:10.37,2013-05-03 20:25:00,
2013-05-03 13:30:00,84.1,49.3,29.89,NE,36,2.9,5.0,30,0.00,CLR,,0.00,984.0,WeatherDisplay:10.37,2013-05-03 20:30:00,
2013-05-03 13:35:00,82.5,48.8,29.88,ENE,71,3.9,4.6,31,0.00,CLR,,0.00,986.0,WeatherDisplay:10.37,2013-05-03 20:35:00,
2013-05-03 13:40:00,82.6,48.9,29.88,SSE,148,3.7,6.9,31,0.00,CLR,,0.00,979.0,WeatherDisplay:10.37,2013-05-03 20:40:00,
2013-05-03 13:45:00,83.2,48.5,29.88,SSE,162,4.7,4.7,30,0.00,CLR,,0.00,976.0,WeatherDisplay:10.37,2013-05-03 20:45:00,
2013-05-03 13:50:00,82.9,49.2,29.88,South,185,2.5,3.5,31,0.00,CLR,,0.00,967.0,WeatherDisplay:10.37,2013-05-03 20:50:00,
2013-05-03 13:55:00,83.2,47.6,29.88,South,180,3.2,8.1,29,0.00,CLR,,0.00,962.0,WeatherDisplay:10.37,2013-05-03 20:55:00,
2013-05-03 14:00:00,83.5,48.8,29.88,SSE,155,2.6,4.6,30,0.00,CLR,,0.00,958.0,WeatherDisplay:10.37,2013-05-03 21:00:00,
2013-05-03 14:05:00,83.6,48.0,29.87,SSE,155,2.0,4.6,29,0.00,CLR,,0.00,954.0,WeatherDisplay:10.37,2013-05-03 21:05:00,
2013-05-03 14:10:00,84.5,46.8,29.87,ESE,122,3.6,6.9,27,0.00,CLR,,0.00,951.0,WeatherDisplay:10.37,2013-05-03 21:10:00,
2013-05-03 14:15:00,84.6,45.9,29.87,SE,127,3.1,8.1,26,0.00,CLR,,0.00,944.0,WeatherDisplay:10.37,2013-05-03 21:15:00,
2013-05-03 14:20:00,84.4,44.7,29.86,SE,136,2.9,5.8,25,0.00,CLR,,0.00,939.0,WeatherDisplay:10.37,2013-05-03 21:20:00,
2013-05-03 14:25:00,84.6,44.9,29.86,SSE,149,4.1,5.0,25,0.00,CLR,,0.00,932.0,WeatherDisplay:10.37,2013-05-03 21:25:00,
2013-05-03 14:30:00,84.8,44.0,29.86,SE,126,5.2,5.2,24,0.00,CLR,,0.00,925.0,WeatherDisplay:10.37,2013-05-03 21:30:00,
2013-05-03 14:35:00,85.0,44.2,29.86,SE,129,4.4,8.1,24,0.00,CLR,,0.00,916.0,WeatherDisplay:10.37,2013-05-03 21:35:00,
2013-05-03 14:40:00,84.9,44.1,29.86,SSW,196,2.9,6.9,24,0.00,CLR,,0.00,907.0,WeatherDisplay:10.37,2013-05-03 21:40:00,
2013-05-03 14:45:00,85.1,44.2,29.85,South,184,2.3,4.6,24,0.00,CLR,,0.00,896.0,WeatherDisplay:10.37,2013-05-03 21:45:00,
2013-05-03 14:50:00,85.2,45.4,29.85,SSE,167,2.5,5.8,25,0.00,CLR,,0.00,889.0,WeatherDisplay:10.37,2013-05-03 21:50:00,
2013-05-03 14:55:00,85.6,44.7,29.85,South,178,1.6,3.5,24,0.00,CLR,,0.00,877.0,WeatherDisplay:10.37,2013-05-03 21:55:00,
2013-05-03 15:00:00,86.1,46.2,29.85,South,178,4.1,5.8,25,0.00,CLR,,0.00,868.0,WeatherDisplay:10.37,2013-05-03 22:00:00,
2013-05-03 15:05:00,85.8,45.9,29.84,South,178,2.3,3.5,25,0.00,CLR,,0.00,858.0,WeatherDisplay:10.37,2013-05-03 22:05:00,
2013-05-03 15:10:00,85.7,45.8,29.84,SSE,168,2.9,3.5,25,0.00,CLR,,0.00,849.0,WeatherDisplay:10.37,2013-05-03 22:10:00,
2013-05-03 15:15:00,86.0,46.1,29.84,South,190,5.7,9.2,25,0.00,CLR,,0.00,838.0,WeatherDisplay:10.37,2013-05-03 22:15:00,
2013-05-03 15:20:00,85.7,45.8,29.84,South,191,6.2,10.4,25,0.00,CLR,,0.00,828.0,WeatherDisplay:10.37,2013-05-03 22:20:00,
2013-05-03 15:25:00,86.3,47.4,29.83,SSW,192,3.7,6.9,26,0.00,CLR,,0.00,817.0,WeatherDisplay:10.37,2013-05-03 22:25:00,
2013-05-03 15:30:00,86.2,46.2,29.83,SSW,192,2.8,6.9,25,0.00,CLR,,0.00,803.0,WeatherDisplay:10.37,2013-05-03 22:30:00,
2013-05-03 15:35:00,85.9,46.0,29.83,SSW,194,3.0,9.2,25,0.00,CLR,,0.00,795.0,WeatherDisplay:10.37,2013-05-03 22:35:00,
2013-05-03 15:40:00,86.0,47.1,29.83,SSW,194,3.5,5.8,26,0.00,CLR,,0.00,779.0,WeatherDisplay:10.37,2013-05-03 22:40:00,
2013-05-03 15:45:00,86.0,47.1,29.83,SSW,194,5.1,6.9,26,0.00,CLR,,0.00,765.0,WeatherDisplay:10.37,2013-05-03 22:45:00,
2013-05-03 15:50:00,85.9,47.0,29.82,South,186,3.2,6.9,26,0.00,CLR,,0.00,751.0,WeatherDisplay:10.37,2013-05-03 22:50:00,
2013-05-03 15:55:00,85.7,46.9,29.82,SSW,198,4.5,6.9,26,0.00,CLR,,0.00,740.0,WeatherDisplay:10.37,2013-05-03 22:55:00,
2013-05-03 16:00:00,85.6,47.8,29.82,SSW,194,6.4,8.1,27,0.00,CLR,,0.00,726.0,WeatherDisplay:10.37,2013-05-03 23:00:00,
2013-05-03 16:05:00,85.3,46.5,29.82,SSW,194,5.3,8.1,26,0.00,CLR,,0.00,708.0,WeatherDisplay:10.37,2013-05-03 23:05:00,
2013-05-03 16:10:00,85.6,47.8,29.81,SSW,200,5.4,6.9,27,0.00,CLR,,0.00,691.0,WeatherDisplay:10.37,2013-05-03 23:10:00,
2013-05-03 16:15:00,85.7,46.9,29.81,SSW,199,6.2,10.4,26,0.00,CLR,,0.00,679.0,WeatherDisplay:10.37,2013-05-03 23:15:00,
2013-05-03 16:20:00,86.1,46.2,29.81,SSW,199,4.6,6.9,25,0.00,CLR,,0.00,663.0,WeatherDisplay:10.37,2013-05-03 23:20:00,
2013-05-03 16:25:00,86.3,46.3,29.80,SSW,199,2.3,5.0,25,0.00,CLR,,0.00,647.0,WeatherDisplay:10.37,2013-05-03 23:25:00,
2013-05-03 16:30:00,86.9,46.8,29.80,SSW,200,4.4,8.1,25,0.00,CLR,,0.00,631.0,WeatherDisplay:10.37,2013-05-03 23:30:00,
2013-05-03 16:35:00,86.5,46.5,29.80,SSW,198,4.5,5.8,25,0.00,CLR,,0.00,615.0,WeatherDisplay:10.37,2013-05-03 23:35:00,
2013-05-03 16:40:00,86.1,46.2,29.80,SSW,192,4.8,6.9,25,0.00,CLR,,0.00,605.0,WeatherDisplay:10.37,2013-05-03 23:40:00,
2013-05-03 16:45:00,86.5,46.5,29.80,SSW,192,1.2,3.5,25,0.00,CLR,,0.00,584.0,WeatherDisplay:10.37,2013-05-03 23:45:00,
2013-05-03 16:50:00,86.6,46.6,29.80,SSW,192,1.3,3.5,25,0.00,CLR,,0.00,568.0,WeatherDisplay:10.37,2013-05-03 23:50:00,
2013-05-03 16:55:00,87.0,46.9,29.80,SSW,192,0.4,3.5,25,0.00,CLR,,0.00,550.0,WeatherDisplay:10.37,2013-05-03 23:55:00,
2013-05-03 17:00:00,87.9,46.6,29.80,SW,227,3.4,3.4,24,0.00,CLR,,0.00,534.0,WeatherDisplay:10.37,2013-05-04 00:00:00,
2013-05-03 17:05:00,87.6,47.4,29.80,SW,227,0.2,2.3,25,0.00,CLR,,0.00,517.0,WeatherDisplay:10.37,2013-05-04 00:05:00,
2013-05-03 17:10:00,87.2,48.1,29.80,SW,227,1.2,3.5,26,0.00,CLR,,0.00,501.0,WeatherDisplay:10.37,2013-05-04 00:10:00,
2013-05-03 17:15:00,86.7,46.7,29.80,SW,226,0.4,2.3,25,0.00,CLR,,0.00,483.0,WeatherDisplay:10.37,2013-05-04 00:15:00,
2013-05-03 17:20:00,86.6,45.5,29.79,West,265,2.0,4.6,24,0.00,CLR,,0.00,466.0,WeatherDisplay:10.37,2013-05-04 00:20:00,
2013-05-03 17:25:00,87.2,44.9,29.79,West,265,1.5,3.5,23,0.00,CLR,,0.00,452.0,WeatherDisplay:10.37,2013-05-04 00:25:00,
2013-05-03 17:30:00,87.0,44.7,29.79,NNW,331,2.8,4.6,23,0.00,CLR,,0.00,434.0,WeatherDisplay:10.37,2013-05-04 00:30:00,
2013-05-03 17:35:00,86.8,44.6,29.79,NNW,329,3.1,5.8,23,0.00,CLR,,0.00,415.0,WeatherDisplay:10.37,2013-05-04 00:35:00,
2013-05-03 17:40:00,85.5,49.6,29.79,WSW,254,2.5,5.8,29,0.00,CLR,,0.00,392.0,WeatherDisplay:10.37,2013-05-04 00:40:00,
2013-05-03 17:45:00,83.3,48.6,29.79,WSW,254,0.8,3.5,30,0.00,CLR,,0.00,374.0,WeatherDisplay:10.37,2013-05-04 00:45:00,
2013-05-03 17:50:00,82.9,49.2,29.79,WSW,254,0.0,1.2,31,0.00,CLR,,0.00,362.0,WeatherDisplay:10.37,2013-05-04 00:50:00,
2013-05-03 17:55:00,82.7,50.7,29.79,WSW,254,2.0,3.5,33,0.00,CLR,,0.00,341.0,WeatherDisplay:10.37,2013-05-04 00:55:00,
2013-05-03 18:00:00,81.6,49.7,29.79,WSW,254,2.0,3.5,33,0.00,CLR,,0.00,322.0,WeatherDisplay:10.37,2013-05-04 01:00:00,
2013-05-03 18:05:00,80.5,49.5,29.79,WSW,254,0.0,0.0,34,0.00,CLR,,0.00,301.0,WeatherDisplay:10.37,2013-05-04 01:05:00,
2013-05-03 18:10:00,80.1,49.2,29.79,WSW,254,0.5,2.3,34,0.00,CLR,,0.00,283.0,WeatherDisplay:10.37,2013-05-04 01:10:00,
2013-05-03 18:15:00,79.4,49.4,29.79,WSW,254,0.0,1.2,35,0.00,CLR,,0.00,265.0,WeatherDisplay:10.37,2013-05-04 01:15:00,
2013-05-03 18:20:00,79.1,50.6,29.79,WSW,254,0.0,0.0,37,0.00,BKN,,0.00,63.0,WeatherDisplay:10.37,2013-05-04 01:20:00,
2013-05-03 18:25:00,78.7,49.5,29.79,WSW,254,0.0,1.2,36,0.00,BKN,,0.00,84.0,WeatherDisplay:10.37,2013-05-04 01:25:00,
2013-05-03 18:30:00,78.0,50.3,29.79,WSW,254,0.3,1.2,38,0.00,BKN,,0.00,83.0,WeatherDisplay:10.37,2013-05-04 01:30:00,
2013-05-03 18:35:00,77.7,49.3,29.78,WSW,254,3.2,3.5,37,0.00,CLR,,0.00,192.0,WeatherDisplay:10.37,2013-05-04 01:35:00,
2013-05-03 18:40:00,76.8,48.6,29.78,WSW,254,1.7,3.5,37,0.00,BKN,,0.00,60.0,WeatherDisplay:10.37,2013-05-04 01:40:00,
2013-05-03 18:45:00,76.6,49.8,29.78,WSW,254,0.9,2.3,39,0.00,BKN,,0.00,56.0,WeatherDisplay:10.37,2013-05-04 01:45:00,
2013-05-03 18:50:00,76.0,49.2,29.78,WSW,254,1.1,2.3,39,0.00,BKN,,0.00,44.0,WeatherDisplay:10.37,2013-05-04 01:50:00,
2013-05-03 18:55:00,75.4,49.4,29.78,WSW,254,3.3,4.6,40,0.00,BKN,,0.00,42.0,WeatherDisplay:10.37,2013-05-04 01:55:00,
2013-05-03 19:00:00,74.6,50.0,29.78,WSW,254,0.4,2.3,42,0.00,BKN,,0.00,40.0,WeatherDisplay:10.37,2013-05-04 02:00:00,
2013-05-03 19:05:00,73.7,49.2,29.79,WSW,254,1.5,2.3,42,0.00,BKN,,0.00,35.0,WeatherDisplay:10.37,2013-05-04 02:05:00,
2013-05-03 19:10:00,72.9,49.1,29.79,WSW,254,2.0,3.5,43,0.00,BKN,,0.00,33.0,WeatherDisplay:10.37,2013-05-04 02:10:00,
2013-05-03 19:15:00,72.4,49.3,29.79,WSW,254,1.7,3.0,44,0.00,BKN,,0.00,32.0,WeatherDisplay:10.37,2013-05-04 02:15:00,
2013-05-03 19:20:00,72.3,49.2,29.79,WSW,254,0.2,1.2,44,0.00,BKN,,0.00,28.0,WeatherDisplay:10.37,2013-05-04 02:20:00,
2013-05-03 19:25:00,72.1,49.6,29.79,WSW,254,0.0,0.0,45,0.00,BKN,,0.00,25.0,WeatherDisplay:10.37,2013-05-04 02:25:00,
2013-05-03 19:30:00,72.8,45.0,29.79,WSW,254,0.0,3.5,37,0.00,BKN,,0.00,23.0,WeatherDisplay:10.37,2013-05-04 02:30:00,
2013-05-03 19:35:00,73.5,41.8,29.78,WSW,254,0.4,3.5,32,0.00,BKN,,0.00,19.0,WeatherDisplay:10.37,2013-05-04 02:35:00,
2013-05-03 19:40:00,73.8,45.9,29.78,WSW,254,0.0,1.2,37,0.00,BKN,,0.00,16.0,WeatherDisplay:10.37,2013-05-04 02:40:00,
2013-05-03 19:45:00,72.7,47.6,29.78,WSW,254,0.3,1.2,41,0.00,SCT,,0.00,14.0,WeatherDisplay:10.37,2013-05-04 02:45:00,
2013-05-03 19:50:00,71.9,50.6,29.78,WSW,254,3.0,3.5,47,0.00,FEW,,0.00,11.0,WeatherDisplay:10.37,2013-05-04 02:50:00,
2013-05-03 19:55:00,70.9,49.7,29.79,WSW,254,3.9,4.6,47,0.00,CLR,,0.00,7.0,WeatherDisplay:10.37,2013-05-04 02:55:00,
2013-05-03 20:00:00,70.1,49.5,29.79,WSW,254,0.0,0.0,48,0.00,,,0.00,5.0,WeatherDisplay:10.37,2013-05-04 03:00:00,
2013-05-03 20:05:00,69.4,48.3,29.79,WSW,254,0.0,0.0,47,0.00,,,0.00,0.0,WeatherDisplay:10.37,2013-05-04 03:05:00,
2013-05-03 20:10:00,68.7,49.8,29.79,WSW,254,0.4,2.3,51,0.00,,,0.00,0.0,WeatherDisplay:10.37,2013-05-04 03:10:00,
2013-05-03 20:15:00,67.3,50.1,29.79,WSW,254,0.1,1.2,54,0.00,,,0.00,0.0,WeatherDisplay:10.37,2013-05-04 03:15:00,
2013-05-03 20:20:00,66.2,50.0,29.79,WSW,254,1.6,2.3,56,0.00,,,0.00,0.0,WeatherDisplay:10.37,2013-05-04 03:20:00,
2013-05-03 20:25:00,65.7,50.5,29.79,WSW,254,0.0,0.0,58,0.00,,,0.00,0.0,WeatherDisplay:10.37,2013-05-04 03:25:00,
2013-05-03 20:30:00,65.3,51.1,29.79,WSW,254,0.3,1.2,60,0.00,,,0.00,0.0,WeatherDisplay:10.37,2013-05-04 03:30:00,
2013-05-03 20:35:00,64.7,51.4,29.79,WSW,254,0.0,0.0,62,0.00,,,0.00,0.0,WeatherDisplay:10.37,2013-05-04 03:35:00,
2013-05-03 20:40:00,64.2,51.3,29.78,WSW,254,0.0,0.0,63,0.00,,,0.00,0.0,WeatherDisplay:10.37,2013-05-04 03:40:00,
2013-05-03 20:45:00,63.9,51.5,29.78,WSW,254,0.0,0.0,64,0.00,,,0.00,0.0,WeatherDisplay:10.37,2013-05-04 03:45:00,
2013-05-03 20:50:00,63.5,51.9,29.79,WSW,254,0.0,0.0,66,0.00,,,0.00,0.0,WeatherDisplay:10.37,2013-05-04 03:50:00,
2013-05-03 20:55:00,63.1,52.0,29.78,WSW,254,0.0,0.0,67,0.00,,,0.00,0.0,WeatherDisplay:10.37,2013-05-04 03:55:00,
2013-05-03 21:00:00,62.9,51.0,29.78,WSW,254,0.0,0.0,65,0.00,,,0.00,0.0,WeatherDisplay:10.37,2013-05-04 04:00:00,
2013-05-03 21:01:00,63.0,50.6,29.78,WSW,254,0.0,0.0,64,0.00,,,0.00,0.0,WeatherDisplay:10.37,2013-05-04 04:01:00,
2013-05-03 21:02:00,63.0,50.6,29.78,WSW,254,0.0,0.0,64,0.00,,,0.00,0.0,WeatherDisplay:10.37,2013-05-04 04:02:00,
2013-05-03 21:04:00,63.2,50.8,29.79,WSW,254,0.0,0.0,64,0.00,,,0.00,0.0,WeatherDisplay:10.37,2013-05-04 04:04:00,
2013-05-03 21:06:00,63.3,51.3,29.79,WSW,254,0.0,11.0,65,0.00,,,0.00,0.0,WeatherDisplay:10.37,2013-05-04 04:06:00,
2013-05-03 21:09:00,63.5,51.9,29.79,WSW,254,0.0,0.0,66,0.00,,,0.00,0.0,WeatherDisplay:10.37,2013-05-04 04:09:00,
2013-05-03 21:14:00,63.3,51.3,29.79,WSW,254,0.0,0.0,65,0.00,,,0.00,0.0,WeatherDisplay:10.37,2013-05-04 04:14:00,
2013-05-03 21:19:00,63.0,50.2,29.79,WSW,254,0.0,0.0,63,0.00,,,0.00,0.0,WeatherDisplay:10.37,2013-05-04 04:19:00,
2013-05-03 21:24:00,63.1,49.9,29.79,WSW,254,0.0,0.0,62,0.00,,,0.00,0.0,WeatherDisplay:10.37,2013-05-04 04:24:00,
2013-05-03 21:29:00,63.3,50.5,29.79,WSW,254,0.0,0.0,63,0.00,,,0.00,0.0,WeatherDisplay:10.37,2013-05-04 04:29:00,
2013-05-03 21:34:00,63.2,50.4,29.79,WSW,254,0.0,0.0,63,0.00,,,0.00,0.0,WeatherDisplay:10.37,2013-05-04 04:34:00,
2013-05-03 21:39:00,63.0,49.3,29.79,WSW,254,0.0,0.0,61,0.00,,,0.00,0.0,WeatherDisplay:10.37,2013-05-04 04:39:00,
2013-05-03 21:44:00,62.9,49.7,29.79,WSW,254,0.0,0.0,62,0.00,,,0.00,0.0,WeatherDisplay:10.37,2013-05-04 04:44:00,
2013-05-03 21:49:00,62.5,51.4,29.79,WSW,254,0.0,0.0,67,0.00,,,0.00,0.0,WeatherDisplay:10.37,2013-05-04 04:49:00,
2013-05-03 21:54:00,62.4,51.3,29.79,WSW,254,0.0,0.0,67,0.00,,,0.00,0.0,WeatherDisplay:10.37,2013-05-04 04:54:00,
2013-05-03 21:59:00,62.3,51.2,29.79,WSW,254,0.0,0.0,67,0.00,,,0.00,0.0,WeatherDisplay:10.37,2013-05-04 04:59:00,
2013-05-03 22:04:00,62.0,50.9,29.79,WSW,254,0.5,2.3,67,0.00,,,0.00,0.0,WeatherDisplay:10.37,2013-05-04 05:04:00,
2013-05-03 22:09:00,61.8,50.7,29.79,WSW,254,0.0,0.0,67,0.00,,,0.00,0.0,WeatherDisplay:10.37,2013-05-04 05:09:00,
2013-05-03 22:14:00,61.4,48.3,29.78,WSW,254,0.2,1.2,62,0.00,,,0.00,0.0,WeatherDisplay:10.37,2013-05-04 05:14:00,
2013-05-03 22:19:00,61.1,47.5,29.78,WSW,254,0.0,0.0,61,0.00,,,0.00,0.0,WeatherDisplay:10.37,2013-05-04 05:19:00,
2013-05-03 22:24:00,61.2,47.6,29.78,WSW,254,0.0,0.0,61,0.00,,,0.00,0.0,WeatherDisplay:10.37,2013-05-04 05:24:00,
2013-05-03 22:29:00,61.2,47.6,29.78,WSW,254,0.0,0.0,61,0.00,,,0.00,0.0,WeatherDisplay:10.37,2013-05-04 05:29:00,
2013-05-03 22:34:00,60.8,47.3,29.78,WSW,254,0.0,0.0,61,0.00,,,0.00,0.0,WeatherDisplay:10.37,2013-05-04 05:34:00,
2013-05-03 22:39:00,61.1,47.5,29.78,WSW,254,0.0,0.0,61,0.00,,,0.00,0.0,WeatherDisplay:10.37,2013-05-04 05:39:00,
2013-05-03 22:44:00,60.8,45.9,29.78,WSW,254,0.0,0.0,58,0.00,,,0.00,0.0,WeatherDisplay:10.37,2013-05-04 05:44:00,
2013-05-03 22:49:00,60.5,47.8,29.77,WSW,254,0.0,0.0,63,0.00,,,0.00,0.0,WeatherDisplay:10.37,2013-05-04 05:49:00,
2013-05-03 22:54:00,60.2,47.1,29.77,WSW,254,0.0,0.0,62,0.00,,,0.00,0.0,WeatherDisplay:10.37,2013-05-04 05:54:00,
2013-05-03 22:59:00,59.9,46.0,29.77,WSW,254,0.0,0.0,60,0.00,,,0.00,0.0,WeatherDisplay:10.37,2013-05-04 05:59:00,
2013-05-03 23:04:00,59.6,46.1,29.77,WSW,254,0.0,0.0,61,0.00,,,0.00,0.0,WeatherDisplay:10.37,2013-05-04 06:04:00,
2013-05-03 23:09:00,59.3,45.0,29.77,WSW,254,0.0,0.0,59,0.00,,,0.00,0.0,WeatherDisplay:10.37,2013-05-04 06:09:00,
2013-05-03 23:14:00,59.4,45.5,29.77,WSW,254,0.0,0.0,60,0.00,,,0.00,0.0,WeatherDisplay:10.37,2013-05-04 06:14:00,
2013-05-03 23:19:00,59.3,45.4,29.77,WSW,254,0.0,0.0,60,0.00,,,0.00,0.0,WeatherDisplay:10.37,2013-05-04 06:19:00,
2013-05-03 23:24:00,59.2,45.3,29.77,WSW,254,0.0,0.0,60,0.00,,,0.00,0.0,WeatherDisplay:10.37,2013-05-04 06:24:00,
2013-05-03 23:29:00,59.0,45.6,29.77,WSW,254,0.0,0.0,61,0.00,,,0.00,0.0,WeatherDisplay:10.37,2013-05-04 06:29:00,
2013-05-03 23:34:00,58.7,45.3,29.76,WSW,254,0.0,0.0,61,0.00,,,0.00,0.0,WeatherDisplay:10.37,2013-05-04 06:34:00,
2013-05-03 23:39:00,58.3,45.8,29.77,WSW,254,0.0,0.0,63,0.00,,,0.00,0.0,WeatherDisplay:10.37,2013-05-04 06:39:00,
2013-05-03 23:44:00,58.4,45.8,29.77,WSW,254,0.0,0.0,63,0.00,,,0.00,0.0,WeatherDisplay:10.37,2013-05-04 06:44:00,
2013-05-03 23:49:00,58.1,46.0,29.77,WSW,254,0.0,0.0,64,0.00,,,0.00,0.0,WeatherDisplay:10.37,2013-05-04 06:49:00,
2013-05-03 23:54:00,57.7,45.6,29.77,WSW,254,0.0,0.0,64,0.00,,,0.00,0.0,WeatherDisplay:10.37,2013-05-04 06:54:00,
2013-05-03 23:59:00,57.7,46.0,29.76,WSW,254,0.0,0.0,65,0.00,,,0.00,0.0,WeatherDisplay:10.37,2013-05-04 06:59:00,